GORIZONT 27 [-]

Last updated on Wed Jun 28 2023 01:02:54 GMT+0100 (British Summer Time)

1 22245U 92082A 23177.74764801 -.00000170 00000+0 00000+0 0 9990 2 22245 14.3718 352.1375 0011182 24.8548 147.9117 1.00212547116269
UTC large
Height (km)
Speed (km/s)
/
Latitude / Longitude
Inclination (degrees)
Orbital Period (minutes)
Azimuth
Elevation
Range (km)
Doppler Factor

Next 0 passes for location: London (51.5072 / 0.1276)

Sorry there are no passes over London.